Wind_Speed
38 39 39 40 41 41 41 41 42 42 42 42 42 42 42 42 42 42 42 43 42 42 41 40 40 39 39 38 38 38 38 38 38 37 37 36 36 36 36 36 36 35 35
38 38 39 40 41 41 41 42 42 42 43 43 42 42 43 43 43 43 43 43 44 43 42 42 41 41 41 41 40 40 40 40 39 39 39 38 38 38 38 38 38 38 37
38 38 38 39 40 40 41 42 42 42 43 43 43 43 43 44 44 44 44 44 44 44 44 44 43 43 43 43 43 42 42 42 41 39 40 40 40 39 39 39 39 39 39
38 38 38 39 40 41 41 42 42 43 43 44 44 43 43 44 45 45 45 44 44 45 46 45 45 45 45 45 45 44 44 43 43 42 42 42 41 41 40 40 40 41 41
37 38 38 39 40 41 42 43 43 44 44 45 45 44 44 45 45 45 45 45 45 46 47 47 47 48 47 46 46 46 46 45 45 45 44 44 43 43 43 41 41 41 41
37 38 39 39 41 42 43 43 44 44 44 44 44 44 44 45 46 46 46 46 46 47 47 48 48 48 49 48 48 47 47 47 47 46 45 45 44 43 43 42 43 43 43
36 38 39 40 41 42 43 44 43 43 44 44 44 44 44 45 47 47 47 47 47 47 47 48 49 49 49 48 48 48 47 47 47 46 46 46 45 45 44 44 44 44 44
36 37 38 40 41 42 42 43 44 44 44 45 46 45 45 46 47 47 47 48 48 47 47 48 49 49 49 49 48 47 47 47 48 48 48 48 47 47 46 46 45 45 45
35 37 38 39 40 41 42 43 45 45 46 46 46 46 46 46 47 47 48 48 48 48 48 48 48 48 48 48 48 48 48 48 48 49 49 49 48 47 47 47 47 47 47
33 35 36 37 39 39 41 42 44 45 46 46 46 46 47 47 47 46 47 49 49 49 49 49 49 49 48 48 49 49 49 49 49 50 50 50 50 49 49 49 49 50 50
33 34 35 36 37 38 39 41 43 44 45 46 46 47 47 47 48 49 48 48 49 50 49 49 49 49 50 50 50 50 50 50 50 51 51 51 51 51 51 51 51 51 52
32 33 34 35 35 37 38 40 43 44 45 46 47 47 47 48 48 47 48 48 48 49 50 50 50 50 50 50 50 50 51 51 51 51 52 52 53 54 53 53 53 53 53
32 33 34 34 35 36 37 39 41 43 44 45 46 46 47 47 47 47 47 48 48 49 50 50 50 51 51 51 51 51 52 52 53 53 53 53 54 54 55 55 54 54 55
32 32 34 34 35 35 36 37 39 40 42 43 44 45 45 46 46 47 48 49 49 49 50 51 51 51 52 52 53 53 53 54 54 54 54 54 54 55 55 55 55 55 55
30 30 31 32 33 33 34 35 36 38 40 41 42 43 44 44 45 46 47 48 49 50 50 51 51 52 53 53 53 54 54 54 55 55 55 55 55 55 55 56 56 56 56
28 29 29 30 30 32 33 34 35 36 38 39 41 41 43 44 45 46 47 49 49 50 50 51 51 52 52 53 53 54 54 54 55 56 56 56 57 56 56 56 56 57 57
28 28 28 29 30 31 32 32 34 34 36 38 38 40 41 43 45 46 47 49 49 50 49 50 50 51 52 53 53 54 54 55 55 57 57 58 57 57 57 57 57 57 56
28 28 28 29 30 30 31 31 32 33 35 36 37 39 40 41 43 45 47 47 48 49 49 49 50 51 52 53 54 54 55 55 56 56 56 57 57 57 57 57 57 57 57
28 28 29 29 29 30 31 32 33 34 35 35 37 38 39 40 41 43 44 46 47 48 49 50 51 51 52 52 52 52 53 54 55 55 55 56 57 57 57 56 56 57 57
27 28 28 29 29 30 31 32 33 34 34 35 36 37 39 40 41 42 43 44 46 46 47 48 49 50 51 51 51 51 51 52 53 54 54 54 54 55 55 55 55 56 57
28 28 27 28 29 30 31 31 32 33 34 34 35 36 37 38 39 40 42 43 44 45 45 46 47 48 49 50 50 50 50 50 50 50 51 51 52 53 53 54 54 54 55
28 28 28 28 29 29 30 31 31 32 33 34 34 34 35 36 36 38 39 40 42 43 43 44 45 46 46 47 47 48 48 49 49 49 49 49 50 50 50 51 52 52 53
28 29 29 29 29 30 30 31 31 32 32 33 33 34 35 35 35 36 36 37 39 40 42 43 44 44 45 46 46 46 47 47 47 47 47 47 47 48 48 48 49 49 50
29 29 29 29 29 29 30 31 31 31 31 32 32 32 32 33 33 33 34 36 37 38 39 40 41 43 44 44 44 45 44 45 45 45 46 46 46 47 48 48 48 49 48
29 30 30 30 30 29 29 29 29 29 30 30 30 30 30 30 31 32 33 33 35 36 37 38 39 40 41 42 43 44 44 44 44 44 45 46 46 46 47 47 48 48 48
29 29 30 30 30 30 29 29 29 29 29 29 29 29 30 30 30 31 32 33 34 34 35 36 37 38 39 40 41 42 42 42 43 43 44 45 45 46 46 46 46 47 47
Wind_Direction
249 248 248 247 245 245 245 245 245 244 243 243 243 241 241 242 241 241 243 243 243 244 244 244 245 246 247 248 249 249 250 250 250 251 251 252 253 253 254 254 255 256 255
250 249 249 247 246 245 245 245 245 245 244 244 243 242 242 242 242 241 242 243 243 243 243 244 245 246 247 248 249 249 250 249 249 250 250 251 252 253 254 255 256 257 257
250 249 249 247 247 246 245 245 245 245 245 244 244 244 243 242 241 241 242 242 242 243 243 244 245 246 247 247 249 249 250 250 250 252 253 252 252 252 254 255 257 258 260
251 250 250 249 247 246 245 244 244 244 245 245 244 245 243 242 242 242 241 241 242 244 244 244 245 246 247 248 249 249 250 250 251 252 254 255 256 255 257 258 258 259 260
252 250 249 249 247 247 245 245 244 244 245 245 244 245 243 242 242 241 241 243 245 245 245 246 246 246 247 249 249 250 250 251 251 252 254 255 256 256 257 258 258 259 260
253 250 250 250 249 248 247 246 247 246 246 245 245 245 244 243 241 241 242 245 246 246 246 247 247 247 248 249 249 250 251 251 251 252 253 255 255 255 257 257 258 259 260
254 252 251 251 250 249 248 247 247 247 246 245 246 245 246 244 242 243 244 245 246 246 246 246 247 248 248 249 249 249 250 250 251 252 253 254 254 256 257 258 259 259 260
255 254 252 252 251 249 248 247 246 246 247 246 246 246 246 245 244 244 244 245 245 246 247 247 247 248 248 248 248 249 249 250 252 253 254 255 256 257 257 258 259 259 260
258 255 254 254 252 250 248 248 247 247 248 246 245 245 246 245 244 245 246 245 244 245 247 247 247 248 248 248 248 249 251 252 252 253 254 255 256 256 257 258 259 260 260
259 258 257 256 254 252 250 249 249 248 248 246 246 246 246 247 247 248 248 246 245 245 246 246 247 248 248 249 250 251 251 251 252 253 253 254 255 256 257 258 260 261 261
260 259 258 258 257 255 253 251 249 248 247 246 248 249 249 249 249 249 249 249 247 246 247 247 248 248 249 250 251 252 252 253 253 253 253 254 256 257 257 258 259 261 262
262 261 260 259 258 258 256 253 250 248 248 249 250 250 251 251 250 250 250 250 249 248 248 249 249 250 251 251 252 252 252 253 254 255 255 256 256 257 258 259 260 260 262
262 262 262 261 260 259 257 253 250 250 249 250 251 251 251 251 250 250 251 251 249 249 250 251 251 251 252 252 252 253 253 254 254 255 256 256 257 257 258 258 259 260 262
265 264 262 262 261 260 258 254 251 251 251 251 251 252 252 251 250 251 252 252 251 251 251 252 252 252 252 253 253 254 254 255 255 256 256 256 257 258 259 258 259 261 262
265 264 263 262 261 260 258 255 253 253 252 252 252 254 253 253 252 252 252 252 252 252 252 253 253 253 253 254 254 255 256 256 256 255 255 256 257 258 259 259 260 261 262
266 264 262 262 262 261 259 257 256 256 256 255 255 254 254 253 253 253 253 253 253 253 253 253 254 254 254 255 255 256 256 256 256 256 256 257 257 258 259 259 260 262 262
268 266 263 263 263 262 260 259 259 259 259 257 257 256 256 255 254 255 255 254 253 253 254 254 255 254 255 255 256 256 257 256 256 257 257 257 258 259 259 260 261 261 261
266 267 266 265 263 263 263 262 261 261 261 260 260 258 258 258 258 257 257 255 254 254 254 254 255 255 256 257 257 257 258 257 257 257 257 257 258 259 260 260 260 261 261
266 267 267 267 265 265 264 262 261 262 262 262 262 261 260 260 260 260 258 257 256 256 256 255 255 256 257 258 258 258 258 258 257 257 258 258 258 259 260 260 261 261 262
268 268 267 268 268 267 265 265 264 264 264 264 264 264 263 261 261 260 259 257 257 257 256 256 256 256 257 258 259 258 258 258 257 257 258 259 259 259 260 262 262 262 261
270 269 267 267 269 268 267 267 266 266 265 266 266 265 265 263 262 261 259 258 257 256 256 256 257 257 257 256 257 258 259 259 259 258 259 259 259 260 261 261 262 262 262
270 269 268 267 268 269 269 270 269 269 268 268 268 268 267 265 263 262 261 259 258 256 256 256 256 256 256 256 257 258 259 260 260 259 260 260 260 260 261 261 261 261 261
271 270 269 269 268 269 270 272 272 272 271 270 271 269 268 266 264 263 262 260 259 258 257 256 256 256 256 256 257 258 260 260 262 262 261 260 260 260 261 260 260 261 262
273 272 272 271 271 271 272 273 274 274 273 272 271 271 269 267 266 264 264 263 261 261 259 258 257 256 256 256 256 258 259 260 261 261 261 260 261 261 261 261 262 262 262
276 274 272 270 270 271 272 273 273 273 273 272 272 271 269 268 267 266 267 267 266 264 262 259 258 257 257 256 257 258 259 259 260 260 260 259 260 261 262 263 263 262 262
277 276 274 272 271 271 272 272 272 271 272 271 270 269 269 267 267 268 269 268 266 265 262 261 259 258 257 258 258 257 258 260 260 260 259 259 259 261 262 263 264 263 263
Height
5684 5685 5687 5688 5691 5693 5695 5698 5700 5702 5705 5708 5710 5714 5717 5720 5724 5727 5731 5734 5737 5740 5744 5747 5750 5753 5755 5757 5759 5761 5763 5765 5766 5768 5769 5771 5772 5774 5775 5776 5778 5779 5780
5673 5675 5677 5678 5681 5683 5686 5688 5690 5693 5695 5698 5701 5704 5707 5710 5714 5717 5721 5724 5727 5731 5734 5737 5740 5743 5746 5748 5750 5752 5754 5756 5758 5759 5760 5762 5764 5765 5767 5768 5769 5770 5771
5664 5665 5667 5669 5671 5673 5676 5678 5681 5683 5685 5688 5691 5694 5697 5700 5703 5707 5711 5714 5717 5720 5724 5727 5730 5733 5735 5738 5741 5743 5745 5747 5749 5750 5752 5753 5755 5757 5758 5759 5761 5762 5763
5654 5655 5657 5658 5661 5663 5665 5668 5670 5673 5675 5678 5680 5683 5686 5690 5693 5696 5700 5703 5706 5709 5713 5716 5719 5722 5725 5728 5730 5733 5735 5737 5739 5740 5742 5744 5746 5748 5749 5751 5751 5752 5753
5644 5645 5647 5648 5650 5652 5655 5657 5660 5662 5665 5667 5670 5673 5676 5679 5682 5685 5688 5692 5695 5698 5702 5705 5708 5711 5714 5717 5719 5722 5724 5727 5729 5730 5732 5734 5735 5737 5739 5741 5742 5743 5744
5634 5635 5636 5638 5640 5642 5644 5647 5649 5651 5654 5657 5659 5662 5665 5668 5671 5675 5678 5681 5684 5687 5690 5693 5696 5699 5702 5705 5708 5710 5713 5715 5718 5720 5721 5723 5725 5727 5728 5730 5731 5732 5734
5624 5625 5626 5627 5629 5631 5633 5635 5638 5640 5643 5646 5649 5652 5655 5657 5660 5664 5667 5670 5673 5676 5679 5681 5684 5687 5690 5693 5696 5698 5701 5704 5706 5708 5711 5712 5714 5716 5717 5719 5720 5722 5723
5614 5615 5615 5617 5618 5620 5622 5624 5626 5629 5632 5634 5637 5640 5643 5646 5650 5652 5655 5658 5661 5665 5667 5670 5672 5675 5678 5681 5684 5686 5689 5692 5694 5697 5699 5701 5702 5704 5706 5707 5709 5710 5712
5604 5605 5605 5606 5607 5608 5610 5612 5615 5617 5620 5623 5626 5629 5632 5635 5638 5641 5644 5646 5649 5652 5655 5658 5661 5663 5666 5668 5671 5675 5677 5680 5683 5685 5687 5689 5691 5692 5694 5695 5697 5698 5700
5594 5594 5595 5595 5596 5597 5599 5601 5603 5606 5609 5611 5614 5617 5620 5623 5626 5629 5632 5634 5637 5640 5643 5646 5649 5651 5654 5656 5659 5662 5665 5668 5670 5672 5674 5676 5678 5680 5682 5683 5684 5685 5687
5584 5584 5584 5585 5586 5587 5588 5589 5592 5594 5597 5600 5603 5605 5608 5611 5614 5616 5619 5621 5624 5627 5630 5633 5636 5639 5641 5644 5647 5650 5652 5655 5657 5659 5662 5664 5665 5667 5669 5670 5671 5672 5673
5573 5573 5574 5574 5575 5576 5577 5578 5580 5583 5586 5588 5590 5593 5596 5598 5601 5604 5606 5609 5612 5614 5617 5620 5623 5626 5629 5631 5634 5636 5639 5641 5644 5646 5648 5650 5652 5653 5655 5656 5657 5658 5659
5564 5563 5564 5564 5564 5565 5566 5567 5569 5571 5574 5576 5578 5581 5583 5585 5588 5591 5594 5596 5599 5601 5604 5607 5610 5613 5615 5618 5620 5622 5625 5627 5630 5632 5634 5636 5638 5639 5640 5642 5643 5644 5645
5554 5554 5554 5554 5554 5555 5556 5557 5558 5560 5562 5564 5566 5569 5571 5573 5576 5578 5581 5583 5585 5588 5591 5593 5596 5599 5601 5603 5606 5608 5611 5613 5615 5617 5619 5621 5623 5625 5626 5627 5628 5629 5630
5546 5545 5544 5544 5545 5545 5546 5546 5548 5549 5551 5553 5555 5557 5559 5561 5563 5565 5568 5570 5572 5574 5577 5579 5582 5584 5587 5589 5591 5594 5596 5598 5600 5602 5604 5606 5608 5609 5610 5612 5613 5614 5615
5537 5536 5536 5536 5536 5536 5536 5537 5538 5539 5540 5542 5543 5545 5546 5548 5550 5552 5554 5556 5558 5560 5562 5565 5567 5569 5572 5574 5576 5578 5581 5583 5585 5587 5589 5591 5592 5594 5595 5596 5598 5599 5600
5528 5527 5527 5527 5527 5527 5527 5528 5528 5529 5530 5530 5531 5533 5534 5535 5537 5538 5540 5542 5544 5546 5548 5550 5552 5555 5557 5559 5561 5563 5565 5567 5569 5571 5573 5575 5577 5578 5579 5580 5582 5583 5585
5519 5519 5518 5518 5518 5517 5517 5518 5518 5519 5519 5520 5520 5521 5522 5523 5524 5524 5526 5528 5530 5532 5534 5536 5538 5540 5542 5544 5546 5547 5549 5551 5553 5555 5557 5559 5560 5562 5563 5565 5566 5568 5569
5511 5510 5510 5509 5509 5508 5508 5508 5509 5509 5509 5509 5509 5509 5509 5510 5511 5511 5512 5514 5515 5517 5519 5521 5523 5526 5528 5529 5531 5532 5533 5535 5538 5539 5541 5542 5544 5546 5548 5549 5551 5552 5553
5502 5501 5500 5500 5499 5499 5499 5499 5498 5498 5498 5498 5498 5498 5497 5498 5498 5499 5499 5500 5501 5503 5504 5507 5509 5511 5513 5515 5516 5517 5519 5521 5523 5524 5526 5527 5529 5530 5531 5533 5534 5536 5538
5493 5492 5491 5491 5490 5489 5489 5488 5488 5487 5487 5487 5486 5486 5485 5485 5485 5485 5485 5486 5487 5489 5491 5493 5494 5496 5498 5500 5502 5503 5505 5506 5508 5509 5511 5512 5513 5514 5516 5517 5519 5520 5521
5484 5483 5482 5482 5481 5480 5479 5478 5478 5477 5476 5475 5475 5474 5473 5472 5472 5472 5472 5473 5474 5475 5477 5478 5480 5482 5484 5486 5488 5490 5491 5492 5494 5495 5497 5498 5499 5500 5501 5502 5504 5505 5505
5475 5474 5473 5473 5472 5471 5470 5469 5468 5466 5465 5464 5463 5462 5462 5461 5460 5460 5460 5461 5461 5462 5464 5465 5467 5469 5471 5473 5475 5476 5478 5479 5480 5481 5483 5484 5485 5486 5487 5488 5489 5490 5491
5466 5465 5464 5463 5462 5461 5460 5458 5457 5456 5455 5454 5453 5452 5451 5450 5449 5449 5449 5449 5449 5450 5451 5452 5454 5456 5458 5460 5462 5463 5465 5466 5467 5468 5469 5470 5471 5472 5474 5475 5475 5476 5477
5457 5455 5454 5453 5452 5451 5450 5449 5447 5446 5445 5444 5443 5442 5441 5440 5439 5439 5439 5438 5438 5438 5439 5441 5442 5444 5445 5448 5449 5450 5452 5453 5455 5455 5456 5457 5458 5459 5460 5461 5462 5462 5463
5447 5446 5444 5443 5442 5441 5440 5439 5438 5437 5435 5434 5433 5432 5431 5430 5430 5429 5429 5428 5428 5428 5428 5429 5430 5431 5433 5434 5436 5438 5439 5440 5441 5442 5443 5444 5445 5446 5447 5448 5448 5449 5450